EWG14E EVRA-EDDV

Flight info

Callsign EWG14E
Flight time 1h 34m
Altitude 36000
Route VALED M869 VEDEN DCT ULRED DCT POKEN Q800 BILRA/N0446F280 Q800 ROSOK/N0438F270 M726 BKD/N0445F280 Q282 CEL CEL1R
Aircraft A320/M-SDE3FGHIRWY/LB1

Departure

Time 2026-05-04 18:27
Airport Riga International Airport (EVRA)

Arrival

Time 2026-05-04 20:01
Airport Hannover Airport (EDDV)
Time Latitude Longitude Altitude Speed Heading
2026-05-04 17:51 56.92289 23.97747 44 ft 0 kts 186°
2026-05-04 18:15 56.92316 23.97756 44 ft 3 kts 197°
2026-05-04 18:15 56.92344 23.97793 40 ft 2 kts 270°
2026-05-04 18:15 56.92344 23.97799 41 ft 0 kts 275°
2026-05-04 18:19 56.92344 23.97792 40 ft 3 kts 275°
2026-05-04 18:19 56.92348 23.97711 44 ft 8 kts 275°
2026-05-04 18:19 56.92354 23.97597 42 ft 10 kts 275°
2026-05-04 18:20 56.92399 23.97514 44 ft 10 kts
2026-05-04 18:20 56.92465 23.97527 44 ft 9 kts
2026-05-04 18:20 56.92523 23.97537 44 ft 8 kts
2026-05-04 18:20 56.92572 23.97546 44 ft 6 kts
2026-05-04 18:21 56.92612 23.97552 44 ft 6 kts
2026-05-04 18:21 56.92659 23.97559 44 ft 6 kts
2026-05-04 18:21 56.92708 23.97566 44 ft 8 kts
2026-05-04 18:21 56.92764 23.97575 44 ft 8 kts
2026-05-04 18:22 56.92826 23.97586 44 ft 11 kts
2026-05-04 18:22 56.92947 23.97606 44 ft 18 kts
2026-05-04 18:22 56.93066 23.97624 44 ft 16 kts
2026-05-04 18:22 56.93172 23.97617 43 ft 14 kts 338°
2026-05-04 18:23 56.93262 23.97569 44 ft 14 kts 355°
2026-05-04 18:23 56.93355 23.97580 44 ft 13 kts
2026-05-04 18:23 56.93437 23.97581 44 ft 11 kts 341°
2026-05-04 18:23 56.93487 23.97472 44 ft 10 kts 277°
2026-05-04 18:24 56.93491 23.97393 44 ft 6 kts 273°
2026-05-04 18:24 56.93490 23.97323 43 ft 5 kts 245°
2026-05-04 18:24 56.93455 23.97293 43 ft 6 kts 188°
2026-05-04 18:24 56.93452 23.97292 43 ft 0 kts 186°
2026-05-04 18:26 56.93411 23.97284 44 ft 21 kts 186°
2026-05-04 18:26 56.93007 23.97218 43 ft 92 kts 185°
2026-05-04 18:26 56.92167 23.97077 44 ft 147 kts 185°
2026-05-04 18:27 56.91054 23.96919 411 ft 162 kts 187°
2026-05-04 18:27 56.89928 23.96811 1064 ft 162 kts 187°
2026-05-04 18:27 56.88770 23.96691 1522 ft 177 kts 189°
2026-05-04 18:27 56.87467 23.96523 1857 ft 197 kts 189°
2026-05-04 18:28 56.86055 23.96294 2318 ft 208 kts 195°
2026-05-04 18:28 56.84759 23.95262 2858 ft 205 kts 225°
2026-05-04 18:28 56.83807 23.93205 3231 ft 222 kts 237°
2026-05-04 18:28 56.82829 23.90831 3731 ft 240 kts 236°
2026-05-04 18:29 56.81797 23.88397 4596 ft 244 kts 235°
2026-05-04 18:29 56.80742 23.85943 5478 ft 247 kts 235°
2026-05-04 18:29 56.79678 23.83474 6373 ft 249 kts 236°
2026-05-04 18:29 56.78848 23.80739 7178 ft 248 kts 255°
2026-05-04 18:30 56.78459 23.74482 8896 ft 250 kts 265°
2026-05-04 18:30 56.78316 23.71288 9605 ft 255 kts 265°
2026-05-04 18:30 56.78171 23.68052 10272 ft 262 kts 265°
2026-05-04 18:31 56.78015 23.64594 10513 ft 285 kts 264°
2026-05-04 18:31 56.77841 23.60796 10705 ft 308 kts 264°
2026-05-04 18:31 56.77657 23.56829 11169 ft 319 kts 264°
2026-05-04 18:31 56.77466 23.52775 11829 ft 323 kts 264°
2026-05-04 18:32 56.77272 23.48681 12544 ft 326 kts 264°
2026-05-04 18:32 56.77075 23.44537 13250 ft 329 kts 264°
2026-05-04 18:32 56.76876 23.40351 13903 ft 333 kts 264°
2026-05-04 18:32 56.76672 23.36137 14534 ft 335 kts 264°
2026-05-04 18:33 56.76466 23.31888 15165 ft 338 kts 264°
2026-05-04 18:33 56.76256 23.27613 15797 ft 340 kts 264°
2026-05-04 18:33 56.76043 23.23303 16417 ft 342 kts 264°
2026-05-04 18:33 56.75827 23.18973 17049 ft 345 kts 264°
2026-05-04 18:34 56.75609 23.14601 17679 ft 347 kts 264°
2026-05-04 18:34 56.75402 23.10208 18279 ft 349 kts 264°
2026-05-04 18:34 56.75228 23.05784 18844 ft 351 kts 265°
2026-05-04 18:34 56.75075 23.01333 19413 ft 353 kts 265°
2026-05-04 18:35 56.74929 22.96865 19967 ft 354 kts 265°
2026-05-04 18:35 56.74830 22.93895 20329 ft 355 kts 265°
2026-05-04 18:35 56.74673 22.89393 20861 ft 357 kts 265°
2026-05-04 18:35 56.74508 22.84873 21377 ft 358 kts 265°
2026-05-04 18:36 56.74336 22.80338 21882 ft 360 kts 264°
2026-05-04 18:36 56.74161 22.75772 22376 ft 362 kts 264°
2026-05-04 18:36 56.73984 22.71192 22856 ft 364 kts 264°
2026-05-04 18:36 56.73805 22.66580 23321 ft 365 kts 264°
2026-05-04 18:37 56.73625 22.61992 23709 ft 367 kts 264°
2026-05-04 18:37 56.73440 22.57282 24081 ft 369 kts 264°
2026-05-04 18:37 56.73256 22.52611 24444 ft 371 kts 264°
2026-05-04 18:37 56.73068 22.47916 24799 ft 372 kts 264°
2026-05-04 18:38 56.72879 22.43209 25142 ft 374 kts 264°
2026-05-04 18:38 56.72684 22.38476 25485 ft 375 kts 264°
2026-05-04 18:38 56.72484 22.33730 25821 ft 377 kts 264°
2026-05-04 18:38 56.72278 22.28953 26150 ft 379 kts 264°
2026-05-04 18:39 56.72069 22.24161 26475 ft 380 kts 264°
2026-05-04 18:39 56.71862 22.19351 26787 ft 382 kts 264°
2026-05-04 18:39 56.71657 22.14521 27093 ft 383 kts 264°
2026-05-04 18:39 56.71448 22.09674 27383 ft 385 kts 264°
2026-05-04 18:40 56.71237 22.04803 27662 ft 387 kts 264°
2026-05-04 18:40 56.71023 21.99919 27941 ft 388 kts 264°
2026-05-04 18:40 56.70806 21.95008 28203 ft 390 kts 264°
2026-05-04 18:40 56.70586 21.90078 28460 ft 391 kts 264°
2026-05-04 18:41 56.70364 21.85138 28703 ft 392 kts 264°
2026-05-04 18:41 56.70136 21.80190 29006 ft 392 kts 264°
2026-05-04 18:41 56.69904 21.75256 29363 ft 391 kts 264°
2026-05-04 18:41 56.69672 21.70330 29704 ft 390 kts 264°
2026-05-04 18:42 56.69438 21.65415 30028 ft 390 kts 264°
2026-05-04 18:42 56.69204 21.60507 30293 ft 390 kts 264°
2026-05-04 18:42 56.68969 21.55591 30541 ft 390 kts 264°
2026-05-04 18:42 56.68731 21.50671 30783 ft 391 kts 264°
2026-05-04 18:43 56.68490 21.45739 31020 ft 392 kts 264°
2026-05-04 18:43 56.68246 21.40807 31261 ft 392 kts 264°
2026-05-04 18:43 56.68001 21.35861 31505 ft 393 kts 264°
2026-05-04 18:43 56.67758 21.30916 31757 ft 393 kts 264°
2026-05-04 18:44 56.67512 21.25956 32001 ft 394 kts 264°
2026-05-04 18:44 56.67344 21.22599 32165 ft 394 kts 264°
2026-05-04 18:44 56.67012 21.16026 32502 ft 395 kts 264°
2026-05-04 18:44 56.66755 21.11053 32749 ft 395 kts 264°
2026-05-04 18:45 56.66495 21.06076 32997 ft 395 kts 264°
2026-05-04 18:45 56.66233 21.01096 33259 ft 396 kts 264°
2026-05-04 18:45 56.65965 20.96049 33505 ft 396 kts 264°
2026-05-04 18:45 56.65701 20.91074 33771 ft 396 kts 264°
2026-05-04 18:46 56.65437 20.86091 33998 ft 396 kts 264°
2026-05-04 18:46 56.65171 20.81101 34213 ft 396 kts 264°
2026-05-04 18:46 56.64901 20.76121 34427 ft 396 kts 264°
2026-05-04 18:46 56.64628 20.71137 34632 ft 397 kts 264°
2026-05-04 18:47 56.64351 20.66147 34828 ft 397 kts 264°
2026-05-04 18:47 56.64072 20.61158 35020 ft 397 kts 264°
2026-05-04 18:47 56.63793 20.56170 35211 ft 397 kts 264°
2026-05-04 18:47 56.63511 20.51166 35393 ft 397 kts 264°
2026-05-04 18:48 56.63228 20.46169 35572 ft 398 kts 264°
2026-05-04 18:48 56.62944 20.41180 35753 ft 398 kts 264°
2026-05-04 18:48 56.62655 20.36170 35847 ft 399 kts 264°
2026-05-04 18:49 56.62067 20.26112 35863 ft 401 kts 264°
2026-05-04 18:49 56.61475 20.16044 35862 ft 401 kts 264°
2026-05-04 18:50 56.60874 20.05969 35863 ft 401 kts 264°
2026-05-04 18:50 56.60264 19.95897 35863 ft 402 kts 264°
2026-05-04 18:51 56.59646 19.85809 35863 ft 402 kts 263°
2026-05-04 18:51 56.59011 19.75671 35862 ft 402 kts 263°
2026-05-04 18:52 56.58372 19.65599 35863 ft 402 kts 263°
2026-05-04 18:52 56.57735 19.55524 35865 ft 402 kts 263°
2026-05-04 18:53 56.57083 19.45444 35863 ft 402 kts 263°
2026-05-04 18:53 56.56419 19.35358 35862 ft 403 kts 263°
2026-05-04 18:54 56.55747 19.25271 35861 ft 403 kts 263°
2026-05-04 18:54 56.55069 19.15189 35864 ft 403 kts 263°
2026-05-04 18:55 56.54381 19.05096 35862 ft 404 kts 263°
2026-05-04 18:55 56.53133 18.90013 35859 ft 404 kts 254°
2026-05-04 18:56 56.50639 18.80875 35856 ft 409 kts 238°
2026-05-04 18:56 56.47448 18.72364 35853 ft 409 kts 239°
2026-05-04 18:57 56.44259 18.63837 35855 ft 409 kts 239°
2026-05-04 18:57 56.41057 18.55319 35859 ft 410 kts 238°
2026-05-04 18:58 56.37843 18.46814 35859 ft 410 kts 238°
2026-05-04 18:58 56.34620 18.38322 35860 ft 410 kts 238°
2026-05-04 18:59 56.31393 18.29836 35862 ft 410 kts 238°
2026-05-04 18:59 56.28163 18.21349 35869 ft 411 kts 238°
2026-05-04 19:00 56.24920 18.12889 35873 ft 411 kts 238°
2026-05-04 19:00 56.21673 18.04438 35881 ft 411 kts 238°
2026-05-04 19:01 56.18415 17.95992 35882 ft 411 kts 238°
2026-05-04 19:01 56.15157 17.87572 35882 ft 411 kts 238°
2026-05-04 19:02 56.11890 17.79151 35887 ft 411 kts 238°
2026-05-04 19:02 56.08594 17.70700 35890 ft 411 kts 238°
2026-05-04 19:03 56.05319 17.62307 35890 ft 411 kts 238°
2026-05-04 19:03 56.02034 17.53934 35893 ft 411 kts 238°
2026-05-04 19:04 55.98746 17.45578 35899 ft 411 kts 237°
2026-05-04 19:04 55.95449 17.37248 35898 ft 411 kts 237°
2026-05-04 19:05 55.92150 17.28928 35903 ft 411 kts 237°
2026-05-04 19:05 55.88851 17.20624 35910 ft 410 kts 237°
2026-05-04 19:06 55.85547 17.12335 35911 ft 410 kts 237°
2026-05-04 19:06 55.82239 17.04060 35911 ft 410 kts 237°
2026-05-04 19:07 55.78920 16.95807 35913 ft 410 kts 237°
2026-05-04 19:07 55.76156 16.88958 35916 ft 410 kts 237°
2026-05-04 19:08 55.72827 16.80731 35922 ft 410 kts 237°
2026-05-04 19:08 55.69478 16.72466 35920 ft 410 kts 237°
2026-05-04 19:09 55.66143 16.64269 35924 ft 410 kts 237°
2026-05-04 19:09 55.62804 16.56098 35929 ft 410 kts 237°
2026-05-04 19:10 55.59461 16.47928 35932 ft 409 kts 237°
2026-05-04 19:10 55.56116 16.39782 35932 ft 409 kts 237°
2026-05-04 19:11 55.52769 16.31661 35934 ft 409 kts 236°
2026-05-04 19:11 55.49413 16.23556 35943 ft 409 kts 236°
2026-05-04 19:12 55.44376 16.11428 35941 ft 409 kts 236°
2026-05-04 19:13 55.41006 16.03359 35940 ft 409 kts 236°
2026-05-04 19:13 55.37632 15.95307 35944 ft 409 kts 236°
2026-05-04 19:14 55.34256 15.87262 35945 ft 409 kts 236°
2026-05-04 19:14 55.30874 15.79234 35946 ft 409 kts 236°
2026-05-04 19:15 55.27479 15.71209 35950 ft 409 kts 236°
2026-05-04 19:15 55.24063 15.63168 35954 ft 409 kts 236°
2026-05-04 19:16 55.20666 15.55174 35955 ft 409 kts 236°
2026-05-04 19:16 55.17269 15.47199 35959 ft 409 kts 236°
2026-05-04 19:17 55.13876 15.39292 35958 ft 408 kts 236°
2026-05-04 19:17 55.10466 15.31349 35962 ft 408 kts 236°
2026-05-04 19:18 55.07056 15.23427 35969 ft 408 kts 236°
2026-05-04 19:18 55.03634 15.15526 35978 ft 408 kts 235°
2026-05-04 19:19 55.00213 15.07645 35963 ft 408 kts 235°
2026-05-04 19:19 54.97097 14.99379 35967 ft 406 kts 241°
2026-05-04 19:20 54.94173 14.90979 35961 ft 406 kts 240°
2026-05-04 19:20 54.91234 14.82608 35953 ft 406 kts 240°
2026-05-04 19:21 54.88287 14.74249 35957 ft 406 kts 240°
2026-05-04 19:21 54.85335 14.65898 35968 ft 406 kts 240°
2026-05-04 19:22 54.82405 14.57529 35960 ft 405 kts 244°
2026-05-04 19:22 54.80389 14.48456 35970 ft 403 kts 252°
2026-05-04 19:23 54.78553 14.39264 35973 ft 404 kts 251°
2026-05-04 19:23 54.76703 14.30079 35978 ft 404 kts 251°
2026-05-04 19:24 54.74844 14.20893 35970 ft 404 kts 251°
2026-05-04 19:24 54.72981 14.11704 35972 ft 405 kts 251°
2026-05-04 19:25 54.71113 14.02525 35973 ft 405 kts 251°
2026-05-04 19:25 54.69231 13.93348 35984 ft 405 kts 251°
2026-05-04 19:26 54.67327 13.84115 35980 ft 405 kts 251°
2026-05-04 19:26 54.65577 13.74934 35982 ft 405 kts 258°
2026-05-04 19:27 54.64387 13.65370 35978 ft 405 kts 258°
2026-05-04 19:27 54.63191 13.55869 35982 ft 405 kts 258°
2026-05-04 19:28 54.61973 13.46373 35983 ft 405 kts 258°
2026-05-04 19:28 54.60745 13.36888 35983 ft 405 kts 258°
2026-05-04 19:29 54.59100 13.27601 35984 ft 407 kts 245°
2026-05-04 19:29 54.56430 13.18987 35982 ft 408 kts 243°
2026-05-04 19:30 54.53742 13.10385 35976 ft 408 kts 244°
2026-05-04 19:30 54.51058 13.01781 35984 ft 408 kts 243°
2026-05-04 19:31 54.48361 12.93178 35982 ft 408 kts 243°
2026-05-04 19:31 54.45659 12.84586 35986 ft 409 kts 243°
2026-05-04 19:32 54.42947 12.76005 35987 ft 409 kts 243°
2026-05-04 19:32 54.40083 12.67493 35984 ft 411 kts 233°
2026-05-04 19:32 54.38009 12.64089 35981 ft 416 kts 221°
2026-05-04 19:33 54.35690 12.61102 35978 ft 417 kts 220°
2026-05-04 19:33 54.31024 12.55183 35980 ft 418 kts 220°
2026-05-04 19:34 54.26345 12.49275 35976 ft 418 kts 220°
2026-05-04 19:34 54.21669 12.43354 35983 ft 418 kts 220°
2026-05-04 19:35 54.16994 12.37445 35988 ft 418 kts 220°
2026-05-04 19:35 54.12310 12.31558 35995 ft 419 kts 220°
2026-05-04 19:36 54.07617 12.25673 35998 ft 419 kts 220°
2026-05-04 19:36 54.02893 12.19752 36005 ft 419 kts 220°
2026-05-04 19:37 53.98191 12.13885 36003 ft 419 kts 220°
2026-05-04 19:37 53.93487 12.08026 36003 ft 419 kts 220°
2026-05-04 19:38 53.88774 12.02182 35999 ft 420 kts 220°
2026-05-04 19:38 53.84851 11.97334 35993 ft 420 kts 220°
2026-05-04 19:39 53.80096 11.91475 35992 ft 420 kts 220°
2026-05-04 19:39 53.75361 11.85672 35986 ft 421 kts 217°
2026-05-04 19:40 53.69985 11.81538 35978 ft 431 kts 201°
2026-05-04 19:40 53.64247 11.78655 35428 ft 429 kts 201°
2026-05-04 19:40 53.61394 11.77215 34691 ft 428 kts 202°
2026-05-04 19:41 53.58539 11.75772 33972 ft 428 kts 202°
2026-05-04 19:41 53.55697 11.74334 33150 ft 427 kts 202°
2026-05-04 19:41 53.52856 11.72903 32322 ft 425 kts 202°
2026-05-04 19:41 53.50024 11.71484 31492 ft 424 kts 202°
2026-05-04 19:42 53.47161 11.70055 30639 ft 423 kts 201°
2026-05-04 19:42 53.44334 11.68645 29745 ft 423 kts 201°
2026-05-04 19:42 53.41517 11.67243 29138 ft 423 kts 201°
2026-05-04 19:42 53.38683 11.65833 28936 ft 426 kts 201°
2026-05-04 19:43 53.35834 11.64418 28970 ft 428 kts 201°
2026-05-04 19:43 53.30121 11.61596 28968 ft 429 kts 201°
2026-05-04 19:44 53.24358 11.58990 28967 ft 433 kts 194°
2026-05-04 19:44 53.21369 11.58340 28775 ft 432 kts 192°
2026-05-04 19:44 53.18387 11.57734 27748 ft 432 kts 192°
2026-05-04 19:44 53.15418 11.57117 26939 ft 427 kts 192°
2026-05-04 19:45 53.12484 11.56501 26166 ft 423 kts 192°
2026-05-04 19:45 53.09630 11.55529 25440 ft 414 kts 201°
2026-05-04 19:45 53.06982 11.53787 24749 ft 406 kts 210°
2026-05-04 19:45 53.04600 11.51340 24067 ft 400 kts 219°
2026-05-04 19:46 53.02537 11.48298 23377 ft 395 kts 228°
2026-05-04 19:46 53.00834 11.44753 22616 ft 391 kts 237°
2026-05-04 19:46 52.99381 11.40955 21897 ft 389 kts 238°
2026-05-04 19:46 52.97955 11.37092 21206 ft 387 kts 239°
2026-05-04 19:47 52.96570 11.33275 20547 ft 384 kts 239°
2026-05-04 19:47 52.95202 11.29484 19932 ft 382 kts 239°
2026-05-04 19:47 52.93836 11.25714 19327 ft 381 kts 239°
2026-05-04 19:47 52.92467 11.21967 18742 ft 379 kts 238°
2026-05-04 19:48 52.91097 11.18245 18159 ft 378 kts 238°
2026-05-04 19:48 52.89727 11.14540 17544 ft 377 kts 238°
2026-05-04 19:48 52.88357 11.10844 17079 ft 376 kts 238°
2026-05-04 19:48 52.86991 11.07160 16643 ft 375 kts 238°
2026-05-04 19:49 52.85628 11.03485 16207 ft 374 kts 238°
2026-05-04 19:49 52.84272 10.99826 15776 ft 372 kts 238°
2026-05-04 19:49 52.82920 10.96180 15348 ft 371 kts 238°
2026-05-04 19:49 52.81574 10.92558 14933 ft 370 kts 238°
2026-05-04 19:50 52.80154 10.89026 14513 ft 368 kts 234°
2026-05-04 19:50 52.78626 10.85623 14108 ft 368 kts 233°
2026-05-04 19:50 52.77097 10.82257 13702 ft 367 kts 233°
2026-05-04 19:50 52.75567 10.78897 13247 ft 365 kts 233°
2026-05-04 19:51 52.74053 10.75569 12811 ft 362 kts 233°
2026-05-04 19:51 52.72548 10.72256 12421 ft 359 kts 233°
2026-05-04 19:51 52.71056 10.68967 12029 ft 356 kts 233°
2026-05-04 19:51 52.69580 10.65705 11656 ft 354 kts 233°
2026-05-04 19:52 52.68116 10.62459 11283 ft 351 kts 233°
2026-05-04 19:52 52.66670 10.59243 10911 ft 348 kts 233°
2026-05-04 19:52 52.65233 10.56042 10548 ft 346 kts 233°
2026-05-04 19:52 52.63817 10.52881 10257 ft 337 kts 233°
2026-05-04 19:53 52.62460 10.49844 10140 ft 321 kts 233°
2026-05-04 19:53 52.61150 10.46910 10014 ft 307 kts 233°
2026-05-04 19:53 52.59914 10.44139 9890 ft 294 kts 233°
2026-05-04 19:53 52.58728 10.41476 9765 ft 283 kts 233°
2026-05-04 19:54 52.57587 10.38914 9550 ft 275 kts 233°
2026-05-04 19:54 52.56464 10.36395 9196 ft 272 kts 233°
2026-05-04 19:54 52.55349 10.33894 8808 ft 270 kts 233°
2026-05-04 19:54 52.54239 10.31410 8410 ft 269 kts 233°
2026-05-04 19:55 52.53130 10.28937 8018 ft 268 kts 233°
2026-05-04 19:55 52.52028 10.26482 7613 ft 267 kts 233°
2026-05-04 19:55 52.50927 10.24034 7219 ft 266 kts 233°
2026-05-04 19:55 52.49830 10.21601 6825 ft 264 kts 233°
2026-05-04 19:56 52.48743 10.19179 6430 ft 263 kts 236°
2026-05-04 19:56 52.47862 10.16567 6076 ft 260 kts 243°
2026-05-04 19:56 52.47081 10.13901 5631 ft 259 kts 244°
2026-05-04 19:56 52.46304 10.11218 5086 ft 258 kts 244°
2026-05-04 19:57 52.45527 10.08541 4532 ft 258 kts 244°
2026-05-04 19:57 52.44765 10.05878 4027 ft 259 kts 248°
2026-05-04 19:57 52.44451 10.03001 3608 ft 257 kts 271°
2026-05-04 19:57 52.44535 10.00133 3443 ft 246 kts 273°
2026-05-04 19:58 52.44630 9.97400 3290 ft 236 kts 273°
2026-05-04 19:58 52.44713 9.94745 3020 ft 231 kts 272°
2026-05-04 19:58 52.44791 9.92123 2740 ft 230 kts 273°
2026-05-04 19:58 52.44869 9.89520 2434 ft 226 kts 273°
2026-05-04 19:59 52.44944 9.87004 2138 ft 216 kts 273°
2026-05-04 19:59 52.45014 9.84610 1854 ft 202 kts 273°
2026-05-04 19:59 52.45079 9.82386 1634 ft 189 kts 273°
2026-05-04 19:59 52.45140 9.80289 1352 ft 179 kts 272°
2026-05-04 20:00 52.45196 9.78344 1126 ft 161 kts 272°
2026-05-04 20:00 52.45247 9.76589 894 ft 148 kts 271°
2026-05-04 20:00 52.45294 9.74950 696 ft 141 kts 271°
2026-05-04 20:00 52.45338 9.73361 505 ft 138 kts 269°
2026-05-04 20:01 52.45382 9.71794 317 ft 137 kts 270°
2026-05-04 20:01 52.45425 9.70267 189 ft 125 kts 270°
2026-05-04 20:01 52.45457 9.69175 194 ft 61 kts 272°
2026-05-04 20:01 52.45468 9.68739 192 ft 20 kts 268°
2026-05-04 20:02 52.45474 9.68520 185 ft 18 kts 272°
2026-05-04 20:02 52.45483 9.68316 184 ft 15 kts 277°
2026-05-04 20:02 52.45511 9.68258 190 ft 1 kts 343°
2026-05-04 20:02 52.45537 9.68256 200 ft 1 kts
2026-05-04 20:03 52.45559 9.68257 200 ft 12 kts
2026-05-04 20:03 52.45606 9.68260 191 ft 2 kts
2026-05-04 20:03 52.45610 9.68261 191 ft 0 kts
2026-05-04 20:03 52.45637 9.68296 193 ft 14 kts 58°
2026-05-04 20:04 52.45640 9.68500 191 ft 18 kts 92°
2026-05-04 20:04 52.45633 9.68693 191 ft 16 kts 91°
2026-05-04 20:04 52.45630 9.68843 209 ft 11 kts 94°
2026-05-04 20:04 52.45627 9.68946 197 ft 7 kts 92°
2026-05-04 20:05 52.45624 9.69043 191 ft 8 kts 93°
2026-05-04 20:05 52.45629 9.69110 202 ft 7 kts 63°
2026-05-04 20:05 52.45694 9.69149 194 ft 9 kts
2026-05-04 20:05 52.45745 9.69172 191 ft 7 kts 27°
2026-05-04 20:06 52.45786 9.69218 191 ft 7 kts 44°
2026-05-04 20:06 52.45808 9.69258 197 ft 3 kts 49°
2026-05-04 20:06 52.45823 9.69284 197 ft 5 kts 47°
2026-05-04 20:06 52.45837 9.69309 201 ft 2 kts 47°
2026-05-04 20:07 52.45844 9.69322 198 ft 0 kts 47°
2026-05-04 20:07 52.45846 9.69325 196 ft 0 kts 47°